Location: Calvin Observatory
(42.9309°N, 85.5886°W)
Time: 14:09:24
(UTC-04:00)

ISS - Visible Passes

Search period start: 21 September 2014 00:00
Search period end: 01 October 2014 00:00
Orbit: 413 x 417 km, 51.6° (Epoch: 21 September)

Date Brightness Start Highest point End Pass type
(mag) Time Alt. Az. Time Alt. Az. Time Alt. Az.
21 Sep -1.3 05:41:17 20° NNW 05:41:42 20° N 05:44:17 10° NE visible
22 Sep -0.4 04:54:22 16° NNE 04:54:22 16° NNE 04:55:25 10° NE visible
22 Sep -1.0 06:27:44 10° NW 06:30:09 18° N 06:32:34 10° NE visible
23 Sep -1.1 05:40:17 17° NNW 05:40:59 18° N 05:43:22 10° NE visible
24 Sep -0.2 04:53:20 14° NNE 04:53:20 14° NNE 04:54:15 10° NE visible
24 Sep -1.2 06:26:36 10° NW 06:29:20 23° NNE 06:32:03 10° ENE visible
25 Sep -1.1 05:39:15 18° NNW 05:40:07 20° N 05:42:38 10° ENE visible
26 Sep -0.2 04:52:20 14° NE 04:52:20 14° NE 04:53:15 10° NE visible
26 Sep -1.9 06:25:12 10° NW 06:28:15 35° NNE 06:31:20 10° E visible
27 Sep -1.5 05:38:20 24° N 05:39:02 27° NNE 05:41:55 10° ENE visible
28 Sep -0.1 04:51:32 15° NE 04:51:32 15° NE 04:52:24 10° ENE visible
28 Sep -3.2 06:24:25 17° NW 06:26:51 75° NNE 06:30:10 10° ESE visible
29 Sep -2.4 05:37:43 47° NNE 05:37:43 47° NNE 05:40:53 10° ESE visible
30 Sep 0.1 04:51:08 12° E 04:51:08 12° E 04:51:25 10° E visible
30 Sep -2.8 06:24:02 30° W 06:25:08 42° SW 06:28:17 10° SSE visible
